Regional Weather Roundup
Issued by NWS

Home | Current Version | Previous Version | Text Only | Print | Product List | Glossary On
Versions: 1 2 3 4 5 6 7 8 9 10 11 12 13 14 15 16 17 18 19 20 21 22 23 24 25 26 27
000
ASUS42 KFFC 281603
RWRGA
WEATHER ROUNDUP FOR GEORGIA
NATIONAL WEATHER SERVICE PEACHTREE CITY GA
1200 PM EDT SAT MAY 28 2016

NOTE: "FAIR" INDICATES FEW OR NO CLOUDS BELOW 12,000 FEET WITH NO
SIGNIFICANT WEATHER AND/OR OBSTRUCTIONS TO VISIBILITY.

* = USE WITH CAUTION. THE STATIONS MARKED WITH AN ASTERISK MAY NOT
REPORT WEATHER SUCH AS PRECIPITATION, FOG, OR THUNDER AND ARE NOT
QUALITY CONTROLLED BY NWS.

THE REMARK "TC" DENOTES TEMPERATURE READING IN DEGREES CELSIUS.

GAZ001>058-281700-
NORTH GEORGIA

CITY           SKY/WX    TMP DP  RH WIND       PRES   REMARKS
ATLANTA        MOSUNNY   80  53  39 E10       30.17S
ATHENS         MOSUNNY   79  60  52 E7        30.19R
CHAMBLEE       SUNNY     79  57  46 VRB6      30.18R
ROME           PTSUNNY   82  59  45 VRB7      30.14F
WEST ATLANTA   SUNNY     79  53  40 VRB3      30.16S
GAINESVILLE    MOSUNNY   77  57  50 MISG      30.21S
CARTERSVILLE   SUNNY     81  54  39 E6        30.16F


CITY           SKY/WX    TMP DP  RH WIND       PRES   REMARKS
DALTON*        MOSUNNY   79  61  53 E7        30.17S
LAWRENCEVILLE* MOSUNNY   79  61  53 NE10      30.20R
MARIETTA       MOSUNNY   79  57  46 E7        30.17S
KENNESAW*      MOSUNNY   81  55  41 SE10G18   30.13S
CANTON*        MOSUNNY   81  50  34 E8        30.20S
BLAIRSVILLE*     N/A    N/A N/A N/A MISG      30.22S
$$

GAZ059>098-102>109-281700-
CENTRAL GEORGIA

CITY           SKY/WX    TMP DP  RH WIND       PRES   REMARKS
AUGUSTA-BUSH   CLOUDY    79  68  69 N3        30.15S
AUGUSTA-DANIEL CLOUDY    78  65  63 NE3       30.17S
COLUMBUS       MOSUNNY   81  64  56 E3        30.12F
MACON          MOSUNNY   81  63  54 VRB3      30.14F
ROBINS AFB     SUNNY     80  64  56 VRB5      30.14S


CITY           SKY/WX    TMP DP  RH WIND       PRES   REMARKS
LAGRANGE*      MOSUNNY   84  67  55 SE5       30.14S
SYLVANIA*      CLOUDY    80  70  71 E6        30.14S
MILLEDGEVILLE* PTSUNNY   79  61  53 CALM      30.16S
$$

GAZ099>101-110>166-281700-
SOUTH GEORGIA

CITY           SKY/WX    TMP DP  RH WIND       PRES   REMARKS
SAVANNAH       CLOUDY    78  69  73 NE8       30.12R
VALDOSTA       PTSUNNY   84  66  54 VRB5      30.10S
ALMA           MOSUNNY   84  67  56 VRB5      30.11F
ST SIMONS      PTSUNNY   81  71  71 N16       30.08S
FT STEWART     CLOUDY    81  68  65 NE8       30.09S
ALBANY         PTSUNNY   85  63  47 VRB6      30.12F
HUNTER AFB     CLOUDY    78  71  77 NE6       30.09S
MOODY AFB      MOSUNNY   84  63  49 N7        30.09F
BRUNSWICK      CLOUDY    81  72  74 NE12G18   30.09F


CITY           SKY/WX    TMP DP  RH WIND       PRES   REMARKS
BAINBRIDGE*    SUNNY     82  64  54 E6        30.10R
MOULTRIE*      MOSUNNY   82  64  54 NE3       30.11F
VIDALIA*       CLOUDY    81  68  65 NE8       30.13F
WAYCROSS*      MOSUNNY   83  65  54 N5        30.10S
DOUGLAS*       PTSUNNY   84  66  54 E7        30.13S
$$




USA.gov is the U.S. government's official web portal to all federal, state and local government web resources and services.